Temperature
26 24 25 25 25 26 25 24 24 24 24 23 22 22 22 22 22 21 21 21 21 21 21 21 21 20 20 20 19 19 19 19 18 18 18 18 18 17 17 17 17 17 17 17
24 25 26 26 26 25 25 25 24 24 24 24 22 22 22 22 22 22 22 22 22 22 21 21 21 21 20 20 20 19 19 19 19 18 18 18 18 18 17 17 17 17 17 17
26 26 26 27 26 26 25 25 24 24 23 23 23 23 22 22 22 22 22 23 23 22 22 22 21 21 21 20 20 20 19 19 19 19 18 18 18 18 18 17 17 17 17 17
26 26 27 27 27 26 25 26 25 24 23 21 23 22 22 21 21 21 22 22 23 23 23 22 22 21 21 21 20 20 20 19 19 19 18 18 18 18 18 18 17 17 17 17
26 26 27 27 27 27 26 25 24 23 21 21 21 22 21 21 21 21 22 22 23 23 23 22 22 22 22 21 21 20 20 19 19 19 19 18 18 18 18 18 17 17 17 17
25 26 27 27 27 26 24 23 22 20 20 22 22 22 21 20 21 22 22 23 23 23 23 23 22 22 22 21 21 21 20 20 20 19 19 19 19 18 18 18 18 17 17 17
25 26 26 27 27 26 24 22 21 22 21 21 21 21 21 22 21 22 22 23 23 23 23 23 23 23 22 22 21 21 21 20 20 20 19 19 19 18 18 18 18 17 17 17
24 24 26 26 26 25 24 22 22 22 22 21 21 21 22 22 23 23 24 24 23 23 23 23 23 23 23 22 22 21 21 21 20 20 20 19 19 19 18 18 18 17 17 17
23 24 25 26 26 25 24 22 21 20 21 21 21 21 22 22 22 22 22 23 23 24 24 24 23 23 23 23 22 22 21 21 20 20 20 19 19 19 18 18 18 17 17 17
22 24 25 25 25 24 23 20 19 19 21 22 23 22 22 23 22 21 21 22 23 24 24 24 24 23 23 23 22 22 21 21 21 20 20 19 19 19 18 18 18 17 17 17
22 23 24 25 26 25 23 21 18 17 19 20 22 22 22 22 22 21 21 23 24 24 24 24 24 24 23 23 22 22 22 21 21 20 20 19 19 19 18 18 18 18 17 17
20 20 21 23 24 24 24 22 19 21 20 18 20 22 23 21 22 22 23 24 24 25 25 24 24 24 23 23 23 22 22 21 21 20 20 19 19 19 18 18 18 17 17 17
20 19 21 22 23 23 24 21 20 18 17 17 20 23 22 21 22 22 23 24 24 25 24 24 24 24 23 23 23 22 22 21 21 20 20 19 19 19 19 18 18 17 17 17
20 18 20 22 22 22 24 22 20 19 19 19 20 22 22 21 21 21 23 24 24 24 24 24 24 24 23 23 23 22 22 21 21 20 20 20 19 19 18 18 18 17 17 17
19 19 20 20 21 22 23 23 21 22 20 21 21 21 22 21 21 22 23 23 23 23 24 24 24 24 23 23 23 22 22 21 21 20 20 20 19 19 18 18 17 17 17 17
16 19 20 21 22 22 23 23 22 22 21 21 22 21 21 21 22 22 22 22 22 23 24 24 24 24 23 23 23 23 22 21 21 20 20 20 19 19 18 18 17 17 17 17
16 17 18 19 21 22 22 22 22 22 21 21 22 22 20 20 20 21 22 22 23 24 24 24 24 24 24 23 23 22 22 21 21 20 20 20 19 19 18 18 17 17 17 16
16 16 15 17 20 21 21 21 22 22 21 20 20 20 19 20 22 22 23 24 24 24 24 24 24 24 23 23 23 22 22 21 21 20 20 19 19 19 18 18 17 17 16 16
15 15 15 16 18 20 21 21 21 21 21 20 20 20 20 21 21 22 23 24 24 24 25 24 24 24 23 23 22 22 21 21 20 20 20 19 19 18 18 18 17 17 16 16
14 14 15 16 19 19 20 21 22 21 21 20 20 19 19 20 20 21 23 23 24 24 24 24 23 23 23 22 22 21 21 20 20 20 19 19 18 18 17 17 17 16 16 15
16 15 15 16 18 18 19 20 21 21 20 21 20 20 20 19 21 22 23 23 23 23 23 23 23 22 22 22 21 21 20 20 19 19 18 18 17 17 17 16 16 16 15 15
15 15 15 15 17 18 19 19 19 19 20 20 20 21 21 21 22 22 22 23 23 23 23 22 22 22 21 21 20 20 20 19 19 18 18 17 17 17 16 16 15 15 15 15
14 14 14 14 16 17 17 18 19 19 19 20 20 21 21 21 21 21 22 22 22 22 22 22 21 21 20 20 20 19 19 19 18 18 17 17 16 16 16 15 15 15 14 14
14 13 13 14 15 16 17 18 19 20 20 21 21 21 21 21 21 21 21 21 21 21 21 21 20 20 20 19 19 18 18 18 18 17 17 16 16 16 15 15 14 14 14 14
13 13 13 13 14 15 17 18 19 19 20 20 21 21 21 21 21 20 20 20 20 20 20 20 20 19 19 18 18 18 18 17 17 17 16 16 15 15 15 15 14 14 14 13
12 13 13 14 15 14 16 18 18 19 19 19 19 19 20 20 20 20 20 20 19 19 19 19 19 19 18 18 18 17 17 17 16 16 16 15 15 15 14 14 14 13 13 13
Wind_Speed
5 6 3 5 6 6 7 6 4 4 3 4 4 3 4 7 7 7 7 7 7 6 5 5 5 5 5 4 4 3 3 3 3 2 2 1 1 0 0 1 3 3 3 3
6 0 4 4 4 5 5 5 3 1 2 4 2 2 3 6 8 8 9 9 8 7 5 6 6 5 5 5 4 4 4 3 3 2 2 2 1 1 1 1 1 2 2 3
4 4 2 4 4 4 2 6 6 5 4 4 3 4 2 3 4 5 7 8 8 10 9 8 7 7 6 5 5 5 4 4 3 3 2 2 2 2 1 1 1 1 2 2
2 3 2 3 3 5 2 4 6 7 6 1 2 2 6 4 4 6 8 8 9 9 9 9 9 8 7 7 5 4 4 4 3 3 3 3 2 1 1 1 1 1 0 1
3 2 2 2 4 5 3 4 7 6 6 3 3 1 7 1 6 9 9 10 10 10 10 10 10 9 8 7 6 5 4 3 3 4 4 3 2 1 1 0 1 1 1 1
4 2 3 4 2 5 7 9 9 7 5 1 2 2 7 5 7 6 7 9 10 10 10 9 8 7 7 6 6 5 5 4 4 4 4 4 3 2 1 0 0 1 1 1
3 3 2 3 4 4 6 7 5 4 4 5 2 3 9 8 7 7 7 9 9 9 10 10 9 9 9 8 7 6 6 5 4 4 4 4 4 3 2 2 1 1 1 1
3 4 4 3 6 6 4 9 8 6 5 4 2 5 8 7 5 5 5 6 8 8 9 10 11 10 10 10 9 8 7 6 5 5 4 3 3 2 2 2 1 1 1 1
6 6 5 3 3 9 6 4 7 7 3 0 5 7 8 3 1 2 4 6 8 9 9 9 9 10 10 10 10 10 8 6 5 5 4 3 3 3 2 2 1 1 1 1
8 4 4 3 5 6 6 10 7 7 6 2 5 5 5 6 6 4 6 7 8 7 7 8 8 8 8 8 8 8 8 7 6 5 5 4 3 3 2 2 1 1 0 0
5 4 4 2 4 6 5 5 6 6 6 7 3 7 7 9 8 9 9 9 9 9 8 8 7 7 7 7 8 8 7 7 6 5 4 4 3 3 3 2 2 1 1 1
4 5 3 6 3 2 5 8 8 6 5 5 5 8 6 7 7 8 8 7 7 7 7 6 7 7 7 7 7 7 7 7 6 6 5 5 4 3 3 2 2 1 1 1
5 6 2 5 5 2 4 4 5 7 6 6 5 8 4 1 3 6 7 7 6 7 6 6 6 7 7 7 7 6 6 6 6 6 5 4 4 4 3 2 2 2 2 2
6 5 7 9 8 4 3 4 5 6 5 6 8 8 7 4 4 5 6 7 7 7 7 8 7 7 7 7 7 7 6 6 6 6 6 5 4 4 3 3 2 2 3 3
5 4 4 5 4 4 4 4 6 6 8 9 9 9 11 9 8 8 7 6 7 7 7 8 9 8 7 7 7 7 6 6 6 6 6 5 4 4 4 3 3 3 3 3
4 4 2 1 1 3 2 4 7 5 5 5 4 8 8 5 2 4 5 7 9 9 9 8 8 8 8 8 8 7 6 6 6 6 5 4 4 4 4 4 3 3 3 3
2 4 3 3 2 2 4 5 6 4 4 6 7 8 3 2 4 7 8 8 9 10 10 10 9 9 8 8 8 8 7 6 7 6 5 5 5 5 5 5 4 3 3 3
5 4 3 2 2 5 8 3 4 5 4 4 5 5 5 6 6 4 5 8 9 8 9 9 9 8 6 6 7 8 8 7 7 6 5 5 5 5 5 5 4 3 3 3
5 7 4 4 4 5 6 3 4 5 4 3 4 3 1 1 2 2 3 5 7 8 8 8 8 8 8 8 9 9 8 7 7 6 6 5 5 5 4 5 4 3 3 3
5 5 6 4 4 7 7 4 2 4 4 4 3 3 2 5 2 5 3 3 4 4 5 7 8 8 8 9 10 10 8 7 7 6 5 5 5 5 5 4 4 3 3 3
3 3 4 4 4 7 6 6 1 5 7 4 3 4 5 5 6 4 2 3 4 5 6 8 9 8 8 9 10 9 8 7 5 5 5 5 5 5 4 4 4 4 4 4
3 3 3 4 4 7 4 1 3 5 4 2 3 4 5 3 2 2 3 4 5 6 7 8 8 7 6 8 9 8 7 6 6 7 6 5 5 4 4 5 4 4 5 5
3 5 5 6 6 5 3 3 4 3 3 3 2 2 3 3 2 2 3 4 5 6 7 7 8 7 6 6 8 8 7 7 7 7 6 5 5 4 4 5 6 4 4 4
2 1 2 2 5 5 5 4 3 3 3 3 2 2 3 3 4 4 4 4 5 5 6 7 8 8 6 5 5 6 7 7 8 7 5 5 5 4 4 3 3 4 3 4
4 0 1 2 5 5 5 4 4 4 2 2 2 0 2 4 4 5 5 5 5 5 5 7 8 8 6 5 5 5 6 7 8 7 5 5 4 4 3 3 2 2 2 4
3 4 4 5 5 3 6 6 5 3 2 0 1 1 2 3 4 5 5 4 5 5 5 5 6 6 6 6 5 5 6 7 7 6 5 4 4 3 3 3 2 2 1 2
Wind_Direction
31 75 141 202 185 176 167 163 188 215 173 148 195 219 207 185 189 198 199 202 206 207 199 171 171 163 158 163 161 169 169 164 142 124 132 137 190 235 272 248 237 227 216 199
42 318 222 180 150 138 144 149 156 63 111 141 176 265 233 196 202 202 201 204 203 198 183 175 171 166 174 183 181 179 182 172 168 160 149 154 146 175 219 278 280 227 217 210
163 232 177 128 120 116 147 170 176 159 94 66 76 334 267 233 208 209 206 202 198 196 192 186 182 181 179 189 193 191 184 176 175 160 121 91 70 41 28 2 320 266 215 217
201 242 147 120 157 143 223 214 149 132 114 35 102 266 283 246 239 223 216 203 202 200 186 183 184 186 191 193 188 181 174 170 169 154 144 143 149 180 242 257 273 312 21 254
224 182 133 163 193 156 163 89 102 99 100 59 30 127 285 286 246 240 223 210 204 197 187 184 187 190 190 182 177 176 167 166 161 153 156 150 158 195 238 328 352 2 4 354
233 237 200 189 117 120 115 72 61 52 67 23 251 170 279 240 225 235 219 207 199 191 188 185 182 175 176 171 169 167 164 168 159 156 158 164 173 187 184 236 357 341 336 334
328 315 266 141 96 58 94 94 54 19 8 255 255 200 252 254 233 222 219 206 193 184 180 179 177 179 180 178 177 171 168 177 169 162 171 179 184 181 191 212 223 247 297 301
159 274 250 182 166 167 158 136 152 178 213 265 305 238 256 269 254 223 205 189 179 178 180 184 188 186 185 183 178 174 176 183 176 173 182 183 178 183 205 211 211 228 253 271
170 239 275 233 179 138 134 138 149 126 133 55 281 286 300 290 262 195 175 171 183 187 185 187 187 185 184 183 182 180 180 183 182 179 172 173 176 181 195 200 207 240 272 277
156 213 283 307 87 42 129 139 106 120 147 218 289 281 255 254 234 213 194 192 196 192 189 187 185 184 183 183 178 173 175 181 182 176 178 180 180 185 187 176 187 205 255 61
140 162 292 13 158 166 109 98 105 115 148 154 218 266 231 220 212 203 207 200 194 191 192 188 184 179 174 171 170 172 175 174 174 177 171 167 173 175 171 177 200 198 155 109
138 129 229 260 262 190 158 162 147 150 191 170 175 259 268 223 215 201 205 201 193 188 182 176 170 165 169 175 173 172 175 178 180 173 166 172 175 166 164 173 195 175 139 119
133 119 95 337 343 29 117 134 136 123 118 151 173 258 310 316 204 201 199 190 181 177 166 154 155 164 172 176 171 174 173 174 170 163 162 165 169 166 167 171 169 138 125 111
124 120 165 195 214 196 164 157 150 130 144 185 215 244 285 273 230 214 203 191 178 173 165 162 166 171 171 168 166 169 170 162 160 157 156 160 166 164 158 144 132 124 118 111
103 147 196 221 222 184 188 186 175 176 179 182 220 226 247 239 222 214 200 183 169 168 173 176 177 176 170 163 162 166 167 161 159 156 160 164 155 143 131 122 117 110 105 107
73 134 139 268 232 195 216 211 190 199 183 202 218 249 255 256 202 191 188 178 180 183 187 184 176 172 173 170 169 166 166 158 149 151 156 145 138 137 133 129 117 105 97 94
88 113 112 234 286 94 249 226 190 187 191 175 206 239 261 237 217 202 194 189 192 191 187 184 182 181 180 176 169 164 156 145 144 148 147 146 144 144 142 140 128 125 121 109
141 115 127 149 99 208 239 233 180 177 209 212 231 250 221 219 224 218 199 192 194 188 183 183 179 178 176 162 150 142 140 142 143 141 141 147 147 148 145 140 146 151 143 136
161 142 129 133 177 255 288 248 180 178 242 235 231 259 266 116 55 325 239 198 195 188 182 176 168 164 157 151 146 140 141 144 146 149 153 157 147 147 152 153 154 153 144 135
69 108 127 138 165 220 243 270 239 145 243 256 211 214 158 109 142 257 247 187 176 161 151 147 143 140 148 149 142 141 149 155 162 165 161 150 141 155 165 165 156 142 136 138
45 59 133 164 200 251 263 294 89 163 233 267 221 203 171 182 214 233 192 170 159 139 137 138 138 145 153 147 145 150 154 167 163 147 140 138 144 151 153 148 143 138 129 119
174 152 176 158 185 240 298 37 169 221 275 274 227 203 189 205 217 135 134 135 133 132 134 135 134 134 140 146 149 152 164 161 140 138 139 142 144 141 143 141 138 134 129 122
195 192 188 192 213 250 285 240 259 240 254 259 234 246 184 175 188 156 145 137 135 136 140 136 133 132 135 144 151 159 162 147 141 139 143 139 134 130 138 146 146 141 139 141
288 139 157 263 272 285 293 290 293 273 259 263 245 223 184 181 175 159 143 136 135 135 140 135 130 133 137 138 143 148 144 140 139 144 149 146 143 136 130 133 147 154 162 165
259 264 163 267 281 309 307 304 298 307 323 8 20 263 189 161 154 150 139 135 137 134 136 139 143 147 147 143 139 136 141 143 145 149 153 150 149 148 143 141 150 175 196 196
226 197 186 230 241 236 270 292 300 310 320 359 91 56 80 124 134 123 119 122 128 131 137 140 145 146 145 141 139 136 145 153 152 155 159 161 161 157 154 150 123 73 124 141
Height
1503 1510 1517 1515 1514 1516 1522 1528 1532 1529 1524 1529 1533 1534 1532 1533 1535 1536 1537 1539 1540 1541 1544 1545 1546 1548 1550 1551 1551 1551 1552 1553 1553 1554 1555 1555 1555 1556 1556 1557 1557 1557 1558 1558
1510 1515 1509 1508 1510 1514 1520 1527 1530 1528 1524 1529 1534 1534 1531 1531 1532 1532 1534 1535 1537 1539 1542 1543 1545 1547 1549 1550 1550 1551 1551 1552 1553 1554 1554 1555 1555 1555 1556 1556 1556 1557 1557 1558
1512 1510 1506 1508 1512 1516 1520 1525 1527 1530 1529 1530 1535 1538 1533 1529 1529 1530 1531 1533 1535 1536 1538 1541 1543 1545 1547 1548 1550 1550 1551 1552 1552 1553 1554 1554 1554 1555 1555 1556 1556 1556 1556 1556
1508 1505 1506 1509 1512 1514 1524 1515 1519 1526 1536 1546 1540 1554 1536 1530 1529 1527 1528 1529 1531 1533 1535 1538 1541 1543 1545 1547 1549 1550 1551 1551 1552 1552 1553 1553 1554 1554 1555 1555 1555 1555 1555 1556
1509 1505 1506 1510 1509 1510 1516 1514 1521 1529 1540 1548 1546 1553 1543 1531 1530 1525 1524 1525 1527 1530 1533 1535 1538 1541 1543 1546 1547 1549 1550 1550 1551 1552 1552 1553 1553 1554 1554 1554 1555 1555 1555 1555
1505 1503 1503 1504 1504 1507 1513 1521 1529 1538 1546 1559 1550 1554 1548 1534 1526 1520 1519 1521 1524 1527 1530 1533 1536 1539 1542 1544 1546 1547 1549 1549 1550 1551 1552 1552 1553 1553 1554 1554 1554 1554 1554 1554
1510 1505 1502 1502 1508 1511 1516 1535 1557 1560 1568 1564 1549 1551 1544 1521 1517 1516 1516 1518 1521 1524 1527 1530 1533 1536 1539 1542 1544 1546 1547 1548 1549 1550 1551 1552 1552 1552 1553 1553 1553 1553 1553 1553
1521 1522 1505 1501 1506 1514 1518 1529 1555 1567 1569 1563 1552 1551 1531 1515 1512 1512 1513 1516 1519 1522 1525 1528 1531 1534 1537 1540 1542 1544 1546 1547 1548 1549 1550 1551 1551 1552 1552 1552 1552 1552 1552 1551
1521 1520 1502 1499 1500 1506 1519 1528 1531 1551 1558 1563 1556 1543 1524 1513 1511 1511 1512 1515 1517 1520 1523 1526 1529 1532 1535 1538 1541 1543 1545 1546 1547 1548 1549 1550 1550 1551 1551 1551 1551 1551 1551 1550
1509 1516 1505 1501 1501 1506 1510 1522 1538 1551 1566 1567 1554 1546 1536 1518 1514 1512 1512 1513 1515 1519 1522 1524 1528 1531 1534 1537 1539 1541 1543 1545 1547 1548 1548 1549 1550 1550 1550 1550 1550 1550 1550 1550
1504 1514 1512 1506 1506 1511 1517 1524 1535 1548 1550 1563 1564 1548 1514 1511 1508 1509 1509 1510 1513 1516 1519 1523 1526 1529 1533 1536 1538 1540 1542 1543 1545 1547 1548 1548 1549 1549 1550 1550 1549 1549 1549 1549
1504 1515 1522 1513 1503 1502 1505 1516 1528 1541 1548 1553 1555 1542 1503 1504 1503 1505 1506 1509 1512 1515 1518 1522 1525 1528 1531 1534 1536 1538 1540 1542 1544 1546 1547 1548 1548 1548 1549 1549 1549 1548 1548 1548
1503 1516 1528 1525 1519 1509 1509 1514 1519 1529 1543 1553 1552 1534 1502 1502 1502 1503 1505 1507 1510 1514 1517 1520 1523 1526 1529 1532 1534 1537 1539 1541 1543 1544 1545 1546 1547 1547 1547 1548 1548 1548 1547 1547
1497 1513 1523 1529 1523 1513 1511 1513 1518 1524 1539 1545 1538 1524 1508 1503 1502 1502 1503 1505 1508 1512 1515 1518 1521 1524 1526 1529 1532 1535 1537 1539 1541 1543 1544 1544 1545 1545 1546 1546 1547 1547 1546 1546
1497 1511 1512 1511 1507 1506 1507 1509 1513 1515 1521 1528 1522 1519 1507 1501 1500 1499 1501 1504 1507 1510 1513 1516 1518 1521 1524 1527 1530 1533 1535 1537 1539 1540 1542 1542 1543 1544 1544 1545 1545 1546 1545 1545
1501 1509 1510 1510 1506 1506 1508 1506 1508 1509 1512 1514 1513 1512 1498 1497 1498 1499 1500 1501 1504 1507 1510 1513 1516 1519 1522 1525 1528 1531 1534 1536 1538 1539 1541 1542 1542 1542 1543 1544 1544 1544 1544 1544
1506 1510 1517 1520 1510 1507 1515 1506 1505 1506 1505 1507 1510 1504 1497 1497 1496 1496 1497 1498 1500 1503 1506 1510 1513 1516 1520 1523 1526 1529 1532 1534 1536 1538 1539 1540 1540 1540 1541 1542 1543 1543 1543 1543
1505 1512 1521 1523 1517 1526 1509 1496 1496 1499 1500 1499 1498 1496 1494 1493 1493 1493 1494 1495 1498 1501 1504 1507 1511 1515 1518 1521 1524 1527 1530 1532 1534 1536 1537 1538 1539 1539 1539 1540 1541 1541 1542 1542
1499 1508 1520 1527 1526 1518 1503 1495 1495 1499 1500 1494 1494 1492 1492 1492 1492 1493 1493 1494 1496 1498 1501 1505 1508 1512 1516 1519 1522 1525 1528 1530 1531 1533 1535 1536 1536 1538 1538 1539 1539 1540 1540 1540
1500 1504 1516 1524 1523 1524 1505 1491 1489 1493 1500 1490 1490 1490 1491 1492 1498 1493 1490 1492 1494 1497 1500 1503 1507 1510 1513 1516 1520 1523 1525 1527 1529 1531 1532 1534 1535 1536 1537 1537 1538 1538 1538 1539
1508 1512 1516 1520 1519 1512 1496 1490 1490 1504 1500 1488 1488 1488 1489 1490 1490 1489 1489 1490 1492 1496 1499 1502 1505 1508 1511 1514 1518 1520 1523 1525 1528 1529 1531 1532 1533 1534 1534 1534 1536 1537 1537 1537
1510 1513 1516 1518 1518 1512 1491 1490 1494 1493 1487 1486 1485 1486 1486 1487 1487 1487 1488 1489 1491 1494 1497 1500 1503 1506 1509 1513 1515 1517 1520 1523 1525 1527 1528 1530 1532 1532 1533 1533 1534 1535 1535 1536
1506 1506 1507 1508 1506 1494 1491 1490 1489 1487 1486 1485 1484 1485 1485 1485 1486 1487 1488 1489 1491 1493 1496 1498 1501 1505 1508 1510 1513 1516 1518 1521 1523 1525 1526 1528 1530 1531 1532 1532 1533 1534 1534 1534
1502 1500 1502 1502 1496 1491 1489 1488 1486 1485 1484 1483 1482 1483 1484 1484 1485 1486 1487 1489 1491 1493 1496 1497 1500 1503 1506 1509 1512 1515 1517 1519 1521 1523 1525 1526 1527 1528 1529 1530 1531 1532 1532 1532
1501 1500 1501 1500 1494 1490 1487 1486 1485 1483 1482 1481 1480 1481 1482 1482 1484 1485 1487 1489 1491 1493 1495 1497 1499 1501 1504 1508 1510 1513 1515 1517 1518 1520 1523 1524 1525 1526 1527 1528 1529 1530 1530 1531
1499 1499 1499 1497 1491 1491 1487 1486 1484 1482 1481 1480 1479 1480 1482 1483 1484 1485 1487 1489 1491 1493 1495 1497 1499 1501 1502 1505 1509 1510 1513 1516 1517 1518 1520 1521 1523 1524 1525 1526 1526 1527 1529 1529